Regional Weather Roundup
Issued by NWS Newport/Morehead, NC

Home | Current Version | Previous Version | Text Only | Print | Product List | Glossary On
Versions: 1 2 3 4 5 6 7 8 9 10 11 12 13 14 15 16 17 18 19 20 21 22 23 24 25 26 27 28 29 30 31 32 33 34 35 36 37 38 39 40 41 42 43 44 45 46 47 48 49 50
000
ASUS42 KMHX 310622
RWRMHX
WEATHER ROUNDUP FOR EASTERN NORTH CAROLINA
NATIONAL WEATHER SERVICE NEWPORT/MOREHEAD CITY NC
100 AM EST SAT JAN 31 2015

NOTE: "FAIR" INDICATES FEW OR NO CLOUDS BELOW 12,000 FEET
WITH NO SIGNIFICANT WEATHER AND/OR OBSTRUCTIONS TO VISIBILITY

NCZ015>017-031-032-045>047-102-103-310700-
NORTH COAST

CITY           SKY/WX    TMP DP  RH WIND       PRES   REMARKS
EDENTON        CLEAR     31  11  43 NW10G22   30.25F
ELIZABETH CITY CLEAR     29  10  45 NW14      30.25R WCI  18
KITTY HAWK     CLEAR     31  12  45 NW14G21   30.20R
MANTEO         CLEAR     30  10  43 NW15G28   30.22R WCI  19

$$

NCZ045>047-081-094-103-104-310700-
CENTRAL COAST

CITY           SKY/WX    TMP DP  RH WIND       PRES   REMARKS
FRISCO         CLEAR     34  17  50 NW16G31   30.21R
SWANQUARTER    NOT AVBL

$$

NCZ095-097-098-100-101-310700-
SOUTHERN COAST

CITY           SKY/WX    TMP DP  RH WIND       PRES   REMARKS
BEAUFORT       CLEAR     33  14  45 N18G26    30.26R
CEDAR ISLAND   NOT AVBL
JACKSONVILLE   CLEAR     33  12  41 NW13      30.29R
PINEY ISLAND     N/A    N/A N/A N/A MISG      30.25R
WILMINGTON     CLEAR     34  13  41 N12       30.29R


$$

NCZ011>013-027>030-043-044-078>080-089-090>093-098-310700-
COASTAL PLAIN

CITY           SKY/WX    TMP DP  RH WIND       PRES   REMARKS
AHOSKIE        CLEAR     28  10  46 CALM      30.28S
CLINTON        CLEAR     32  14  46 N3        30.32S
ELIZABETHTOWN  PTCLDY    32  10  39 CALM      30.31S
GOLDSBORO      CLEAR     39  16  38 NW14G21   30.20R
GREENVILLE     CLEAR     32  12  43 NW5       30.29S
HAVELOCK       CLEAR     34  12  40 N18       30.28R
KENANSVILLE    CLEAR     31  10  42 NW5       30.31S
KINSTON        CLEAR     31  12  46 NW7       30.30S
NEW BERN       CLEAR     34  11  38 NW12G21   30.29R
RICHLANDS      CLEAR     30   9  40 NW6       30.30R
ROCKY MOUNT    CLEAR     29  11  47 NW7       30.30S
WASHINGTON     CLEAR     30  11  45 NW6       30.29R
WHITEVILLE     CLEAR     34  12  39 CALM      30.30F

$$

AMZ130-135-150-152-154-156-158-170-250-252-270-ANZ085-086-088-633-658-670-310700-
MARINE OBSERVATIONS

STATION/POSITION TIME  TEMP    WIND        PRES    WAVE   SWELL
                       AIR SEA DIR/SP/G            HT/PER HT/PER
                 (UTC) (F)     (DEG/KT/KT) (MB)    (FT/S) (FT/S)
CHESAPEAKE LIGHT 0600   28     320/ 34/ 38 1022.8
64 E VA BEACH    0600   33 48  320/ 29/ 37 1019.7   12/ 8
DUCK             0600   31 42  320/ 22/ 27 1022.0
2 E DUCK         0600      43                N/A     6/ 6
10 NE DUCK       0600      44                N/A     8/ 6
OREGON INLET     0600   32 42  310/ 20/ 27 1022.7
13E OREGON INLT  0600      45                N/A     9/ 8   2/11
HATTERAS CG      0600   35 43  320/ 25/ 30 1023.2
DIAMOND BUOY     0600   39 64  330/ 29/ 35 1021.3    8/ 6
17 S OCRACOKE    NOT AVBL
CAPE LOOKOUT     0600   36     340/ 21/ 25 1024.0
BEAUFORT LAB     0600   35 46  350/ 12/ 19 1023.6
27 SE WRIGHTSVLE NOT AVBL
5 SE WRIGHTSVLE  0600   39 51  340/ 17/ 21 1025.1
225 S CAPE HAT   0523   57 71  320/ 25/ 33 1019.5   12/ 9
41 SE CHARLESTON 0600   51 68   10/ 23/ 27 1023.6    6/ 6   2/10

$$



USA.gov is the U.S. government's official web portal to all federal, state and local government web resources and services.